DECAYED
Showing default

RAPIS-1, 43932 (Decayed)

Orbit data source: Space-Track

RAPIS-1, 43932 was a payload satellite owned by JAXA (JP) in LEO that was launched on Fri, 18 Jan 2019 UTC via an EPSILON launch vehicle from the Kagoshima Space Center University Of Tokyo (KSCUT). Payload-class satellites include a variety of spacecraft equipped with specific instruments for various scientific and technological missions. These include communications satellites like Starlink; space stations such as the ISS; scientific satellites like the Hubble; Earth observation satellites from companies like Planet Labs, Umbra, and HawkEye 360; GPS; miniature CubeSats for education and research; and military/defense satellites.

Loading next visibility...
Identifier
43932, 2019-003A
Orbit
Decayed
Country
Flag of JPJP / JPN
Related business
Manufacturer
JAXA
Mission
Decayed Civil Technology
Bus & Motor
RAPIS, Unknown motor
Mass
200 kg wet, 200 kg dry
Launch date (UTC)
2019-01-18 (7 years ago)
Launch vehicle
EPSILON
Launch site
Kagoshima Space Center University Of Tokyo (KSCUT)
Object type
Payload
Rocket body
Debris
Shape & HBR
Box + 1 Pan, 1.3 m
Radar Cross Section
1.908 m², Medium (>0.1 m² and < 1m²)

Expand to show TLE details & history
Last TLE update: 1 year ago

TLE from 1 year ago
0 RAPIS-1
1 43932U 19003A   24269.25296083  .15421290  24407-5  12290-2 0  9994
2 43932  97.1655 259.2580 0008766 254.9296 123.1605 16.40055852315048
Epoch: 2024-09-25T06:04Z
TLE epoch observation values (Epoch: 2024-09-25T06:04:15.815Z)
Latitude
18.01874°
Longitude
161.30645°
Altitude
171.467 km
Speed
7.803 km/s
True Right ascension
17h 07m 42s
True Declination
17° 54' 32"
Sunlit
Object was in daylight at epoch
Visualization orbit readout
Latitude
Unknown
Longitude
Unknown
Altitude
Unknown
Speed
Unknown
Apparent Right ascension
Unknown
Apparent Declination
Unknown
Sunlit
N/A
Visualization observer readout
Local Sidereal Time
23:20:52
Azimuth
Unknown
Elevation
Unknown
Doppler factor
Unknown
Orbital elements
Apogee altitude
168.185 km
Perigee altitude
156.718 km
Semi-major axis
6,540.588 km
Eccentricity
0.00088
Inclination
97.1655°
RAAN
259.258°
Arg. of periapsis
254.9296°
True anomaly
123.24454°
Mean anomaly
123.1605°
Eccentric anomaly
123.20253°
Mean motion
4.10316 °/min
Orbital period
87.74 mins
BSTAR
0.001229
Loading maneuver chart data...
Computing Atmospheric mass density...
Loading historical data...
Loading historical data...
Loading historical data...
Loading historical data...
Loading historical data...
Loading historical data...
Loading historical data...

Documentation

Showing up to 5 results
|